Location: Arlington
(40.6323°N, 74.1651°W)
Time: 04:41:00
(UTC+00:00)

BREEZE-M R/B - Pass Details

Date: 22 November 2019
Orbit: 310 x 4549 km, 49.7° (Epoch: 14 December)

Event Time Altitude Azimuth Distance (km) Brightness Sun altitude
Rises 22:34:14 0° 221° (SW) 4,669 8.6 -11.4°
Reaches altitude 10° 22:38:22 10° 217° (SW) 3,016 7.4 -12.2°
Maximum altitude 22:44:30 45° 146° (SE) 878 3.7 -13.3°
Enters shadow 22:46:31 23° 84° (E) 1,158 3.8 -13.7°
